Terminal Aerodrome Forecast
Issued by NWS Rapid City, SD

Home | Current Version | Previous Version | Graphics & Text | Print | Product List | Glossary On
Versions: 1 2 3 4 5 6 7 8 9 10 11 12 13 14 15 16 17
000
FTUS43 KUNR 250520
TAFRAP
TAF
KRAP 250520Z 2506/2606 VRB05KT P6SM VCTS SCT040 BKN090CB
     FM250900 VRB05KT P6SM SCT100=

USA.gov is the U.S. government's official web portal to all federal, state and local government web resources and services.